Flagstaff, AZ

4:08 PM MST on February 12, 2016 (GMT -0700)
Flagstaff Pulliam

Weather History for KFLG - January, 2014

Change the Weather History Date:

Tuesday, January 14, 2014

  Actual Average Record
Temperature  
Mean Temperature 33 °F 30 °F  
Max Temperature 50 °F 42 °F 65 °F (1943)
Min Temperature 15 °F 17 °F -15 °F (2007)
Degree Days  
Heating Degree Days 32 35  
Month to date heating degree days 429 496  
Since 1 July heating degree days 3342 3324  
Cooling Degree Days 0 0  
Month to date cooling degree days 0 0  
Year to date cooling degree days 0 0  
Moisture  
Dew Point 8 °F    
Average Humidity 45    
Maximum Humidity 73    
Minimum Humidity 16    
Precipitation  
Precipitation 0.00 in 0.07 in 0.42 in (1969)
Month to date precipitation 0.00 0.99  
Year to date precipitation 0.00 0.99  
Snow  
Snow 0.00 in 0.80 in 3.70 in (1993)
Month to date snowfall 0.0 10.1  
Since 1 July snowfall 29.9 39.2  
Snow Depth 0.00 in    
Sea Level Pressure  
Sea Level Pressure 30.39 in    
Wind  
Wind Speed 13 mph (ENE)    
Max Wind Speed 35 mph    
Max Gust Speed 44 mph    
Visibility 10 miles    
Events      
T = Trace of Precipitation, MM = Missing Value Source: NWS Daily Summary

Daily Weather History Graph

Daily Weather History Graph

Search for Another Location

Airport or City:

Trip Planner

Search our weather history database for the weather conditions in past years. The results will help you decide how hot, cold, wet, or windy it might be!

Date:

Astronomy

Jan. 14, 2014 Rise Set
Actual Time 7:34 AM MST 5:37 PM MST
Civil Twilight 7:07 AM MST 6:04 PM MST
Nautical Twilight 6:35 AM MST 6:35 PM MST
Astronomical Twilight 6:05 AM MST 7:06 PM MST
Moon 4:44 PM MST (1/14) 6:12 AM MST (1/14)
Length of Visible Light 10h 57m
Length of Day
10h 02m
Waxing Gibbous, 98% of the Moon is Illuminated
Jan 14
Waxing Gibbous
Jan 15
Full
Jan 23
Last Quarter
Jan 30
New
Feb 6
First Quarter

Hourly Weather History & Observations

Time (MST) Temp. Windchill Dew Point Humidity Pressure Visibility Wind Dir Wind Speed Gust Speed Precip Events Conditions
12:57 AM 28.0 °F 21.7 °F 9.0 °F 45% 30.30 in 10.0 mi North 5.8 mph - N/A   Clear
1:57 AM 23.0 °F 17.0 °F 10.0 °F 58% 30.29 in 10.0 mi SW 4.6 mph - N/A   Clear
2:57 AM 19.9 °F 14.9 °F 9.0 °F 62% 30.30 in 10.0 mi West 3.5 mph - N/A   Clear
3:57 AM 19.9 °F - 9.0 °F 62% 30.32 in 10.0 mi Calm Calm - N/A   Clear
4:57 AM 19.0 °F - 9.0 °F 65% 30.35 in 10.0 mi Calm Calm - N/A   Clear
5:57 AM 17.1 °F - 9.0 °F 71% 30.40 in 10.0 mi Calm Calm - N/A   Clear
6:57 AM 16.0 °F - 8.1 °F 71% 30.47 in 10.0 mi Calm Calm - N/A   Clear
7:57 AM 21.9 °F 14.5 °F 9.0 °F 58% 30.48 in 10.0 mi SW 5.8 mph - N/A   Clear
8:57 AM 32.0 °F - 14.0 °F 48% 30.44 in 10.0 mi Calm Calm - N/A   Clear
9:57 AM 44.1 °F 37.1 °F 9.0 °F 24% 30.42 in 10.0 mi ENE 15.0 mph 21.9 mph N/A   Clear
10:57 AM 46.9 °F - 6.1 °F 19% 30.41 in 10.0 mi East 17.3 mph 28.8 mph N/A   Clear
11:57 AM 48.9 °F - 7.0 °F 18% 30.40 in 10.0 mi ENE 20.7 mph 28.8 mph N/A   Clear
12:57 PM 50.0 °F - 6.1 °F 17% 30.33 in 10.0 mi NE 34.5 mph 43.7 mph N/A   Clear
1:57 PM 50.0 °F - 6.1 °F 17% 30.34 in 10.0 mi NE 31.1 mph 43.7 mph N/A   Clear
2:57 PM 50.0 °F - 7.0 °F 18% 30.37 in 10.0 mi NNE 24.2 mph 38.0 mph N/A   Clear
3:57 PM 48.0 °F - 8.1 °F 20% 30.40 in 10.0 mi NE 25.3 mph 33.4 mph N/A   Clear
4:57 PM 45.0 °F 36.9 °F 8.1 °F 22% 30.43 in 10.0 mi NE 20.7 mph 33.4 mph N/A   Clear
5:57 PM 42.1 °F 33.3 °F 9.0 °F 26% 30.45 in 10.0 mi NE 19.6 mph - N/A   Clear
6:57 PM 39.9 °F 31.4 °F 9.0 °F 28% 30.49 in 10.0 mi NE 16.1 mph - N/A   Clear
7:57 PM 41.0 °F 31.4 °F 8.1 °F 26% 30.45 in 10.0 mi East 21.9 mph 27.6 mph N/A   Clear
8:57 PM 39.9 °F 37.8 °F 8.1 °F 27% 30.42 in 10.0 mi Variable 3.5 mph - N/A   Clear
9:57 PM 37.0 °F 31.6 °F 9.0 °F 31% 30.38 in 10.0 mi ESE 6.9 mph - N/A   Clear
10:57 PM 39.0 °F 31.8 °F 8.1 °F 28% 30.35 in 10.0 mi East 11.5 mph - N/A   Clear
11:57 PM 39.0 °F 31.4 °F 9.0 °F 29% 30.34 in 10.0 mi ENE 12.7 mph - N/A   Clear